| time (UTC) | temp F | wind direction | speed MPH | gust MPH | rain 1hr in | rain 24hr in | rain mn in | humidity % | barometer mb |
| 20260506141532 | 48 | 290 | 6.0 | 9.0 | 0.00 | 0.00 | 0.00 | 47 | 1013.1 |
| 20260506141016 | 47 | 249 | 5.0 | 10.0 | 0.00 | 0.00 | 0.00 | 49 | 1013.2 |
| 20260506140516 | 48 | 254 | 4.0 | 10.0 | 0.00 | 0.00 | 0.00 | 48 | 1013.3 |
| 20260506140030 | 47 | 265 | 6.0 | 10.0 | 0.00 | 0.00 | 0.00 | 50 | 1013.2 |
| 20260506135515 | 47 | 233 | 3.0 | 7.0 | 0.00 | 0.00 | 0.00 | 51 | 1013.2 |
| 20260506135015 | 47 | 311 | 3.0 | 5.0 | 0.00 | 0.00 | 0.00 | 56 | 1013.2 |
| 20260506134529 | 46 | 207 | 2.0 | 4.0 | 0.00 | 0.00 | 0.00 | 57 | 1013.2 |
| 20260506134014 | 45 | 259 | 2.0 | 4.0 | 0.00 | 0.00 | 0.00 | 57 | 1013.2 |
| 20260506133514 | 45 | 270 | 2.0 | 5.0 | 0.00 | 0.00 | 0.00 | 56 | 1013.2 |
| 20260506133032 | 45 | 244 | 2.0 | 5.0 | 0.00 | 0.00 | 0.00 | 55 | 1013.2 |
| 20260506132515 | 45 | 252 | 2.0 | 4.0 | 0.00 | 0.00 | 0.00 | 57 | 1013.3 |
| 20260506132020 | 45 | 270 | 2.0 | 7.0 | 0.00 | 0.00 | 0.00 | 57 | 1013.2 |
| 20260506131533 | 45 | 252 | 2.0 | 7.0 | 0.00 | 0.00 | 0.00 | 57 | 1013.2 |
| 20260506131016 | 45 | 275 | 3.0 | 6.0 | 0.00 | 0.00 | 0.00 | 56 | 1013.2 |
| 20260506130517 | 45 | 294 | 2.0 | 4.0 | 0.00 | 0.00 | 0.00 | 57 | 1013.2 |
| 20260506130032 | 45 | 238 | 1.0 | 4.0 | 0.00 | 0.00 | 0.00 | 56 | 1013.0 |
| 20260506125516 | 45 | 265 | 0.0 | 2.0 | 0.00 | 0.00 | 0.00 | 56 | 1013.0 |
| 20260506125015 | 44 | 165 | 0.0 | 2.0 | 0.00 | 0.00 | 0.00 | 59 | 1012.9 |
| 20260506124531 | 43 | 165 | 0.0 | 2.0 | 0.00 | 0.00 | 0.00 | 60 | 1012.9 |
| 20260506124015 | 43 | 321 | 1.0 | 2.0 | 0.00 | 0.00 | 0.00 | 60 | 1012.8 |
| 20260506123515 | 43 | 134 | 1.0 | 4.0 | 0.00 | 0.00 | 0.00 | 62 | 1012.8 |
| 20260506123033 | 42 | 140 | 0.0 | 4.0 | 0.00 | 0.00 | 0.00 | 62 | 1012.8 |
| 20260506122516 | 42 | 165 | 0.0 | 2.0 | 0.00 | 0.00 | 0.00 | 63 | 1012.8 |
| 20260506122017 | 42 | 212 | 0.0 | 2.0 | 0.00 | 0.00 | 0.00 | 69 | 1012.7 |
| 20260506121530 | 41 | 228 | 0.0 | 2.0 | 0.00 | 0.00 | 0.00 | 70 | 1012.7 |
| 20260506121016 | 40 | 89 | 0.0 | 2.0 | 0.00 | 0.00 | 0.00 | 72 | 1012.7 |
| 20260506120517 | 40 | 0 | 0.0 | 2.0 | 0.00 | 0.00 | 0.00 | 71 | 1012.8 |
| 20260506120040 | 39 | 0 | 0.0 | 2.0 | 0.00 | 0.00 | 0.00 | 75 | 1012.7 |
| 20260506115514 | 39 | 0 | 0.0 | 0.0 | 0.00 | 0.00 | 0.00 | 76 | 1012.6 |
| 20260506115014 | 39 | 0 | 0.0 | 0.0 | 0.00 | 0.00 | 0.00 | 74 | 1012.7 |
| 20260506114533 | 39 | 0 | 0.0 | 1.0 | 0.00 | 0.00 | 0.00 | 75 | 1012.7 |
| 20260506114013 | 38 | 0 | 0.0 | 1.0 | 0.00 | 0.00 | 0.00 | 76 | 1012.5 |
| 20260506113516 | 38 | 0 | 0.0 | 1.0 | 0.00 | 0.00 | 0.00 | 76 | 1012.5 |
| 20260506113033 | 38 | 0 | 0.0 | 1.0 | 0.00 | 0.00 | 0.00 | 75 | 1012.5 |
| 20260506112514 | 37 | 0 | 0.0 | 2.0 | 0.00 | 0.00 | 0.00 | 76 | 1012.6 |
| 20260506112018 | 37 | 0 | 0.0 | 2.0 | 0.00 | 0.00 | 0.00 | 73 | 1012.4 |
| 20260506111531 | 37 | 0 | 0.0 | 2.0 | 0.00 | 0.00 | 0.00 | 77 | 1012.3 |
| 20260506111017 | 37 | 0 | 0.0 | 2.0 | 0.00 | 0.00 | 0.00 | 77 | 1012.3 |
| 20260506110513 | 37 | 0 | 0.0 | 2.0 | 0.00 | 0.00 | 0.00 | 75 | 1012.3 |
| 20260506110032 | 37 | 289 | 0.0 | 2.0 | 0.00 | 0.00 | 0.00 | 74 | 1012.2 |
| 20260506105514 | 37 | 0 | 0.0 | 0.0 | 0.00 | 0.00 | 0.00 | 76 | 1012.2 |
| 20260506105014 | 37 | 0 | 0.0 | 0.0 | 0.00 | 0.00 | 0.00 | 76 | 1012.0 |
| 20260506104533 | 36 | 0 | 0.0 | 2.0 | 0.00 | 0.00 | 0.00 | 76 | 1012.0 |
| 20260506104014 | 36 | 0 | 0.0 | 2.0 | 0.00 | 0.00 | 0.00 | 77 | 1012.0 |
| 20260506103516 | 36 | 278 | 0.0 | 1.0 | 0.00 | 0.00 | 0.00 | 77 | 1012.2 |
| 20260506103035 | 36 | 278 | 0.0 | 2.0 | 0.00 | 0.00 | 0.00 | 78 | 1012.2 |
| 20260506102516 | 36 | 278 | 0.0 | 2.0 | 0.00 | 0.00 | 0.00 | 79 | 1012.0 |
| 20260506102015 | 36 | 0 | 0.0 | 0.0 | 0.00 | 0.00 | 0.00 | 77 | 1012.0 |
| 20260506101530 | 36 | 0 | 0.0 | 2.0 | 0.00 | 0.00 | 0.00 | 78 | 1011.9 |
| 20260506101013 | 36 | 0 | 0.0 | 2.0 | 0.00 | 0.00 | 0.00 | 77 | 1011.8 |
| 20260506100513 | 36 | 0 | 0.0 | 2.0 | 0.00 | 0.00 | 0.00 | 76 | 1011.8 |
| 20260506100031 | 36 | 278 | 0.0 | 2.0 | 0.00 | 0.00 | 0.00 | 74 | 1011.9 |
| 20260506095514 | 36 | 0 | 0.0 | 2.0 | 0.00 | 0.00 | 0.00 | 76 | 1011.8 |
| 20260506095016 | 36 | 0 | 0.0 | 2.0 | 0.00 | 0.00 | 0.00 | 76 | 1011.8 |
| 20260506094532 | 36 | 278 | 1.0 | 2.0 | 0.00 | 0.00 | 0.00 | 74 | 1012.0 |
| 20260506094016 | 36 | 273 | 1.0 | 3.0 | 0.00 | 0.00 | 0.00 | 74 | 1012.0 |
| 20260506093518 | 36 | 282 | 1.0 | 3.0 | 0.00 | 0.00 | 0.00 | 74 | 1012.0 |
| 20260506093031 | 35 | 279 | 1.0 | 2.0 | 0.00 | 0.00 | 0.00 | 76 | 1012.0 |
| 20260506092514 | 35 | 280 | 0.0 | 2.0 | 0.00 | 0.00 | 0.00 | 77 | 1012.0 |
| 20260506092014 | 35 | 0 | 0.0 | 2.0 | 0.00 | 0.00 | 0.00 | 77 | 1011.9 |
| 20260506091532 | 35 | 280 | 0.0 | 2.0 | 0.00 | 0.00 | 0.00 | 77 | 1011.8 |
| 20260506091016 | 35 | 0 | 0.0 | 2.0 | 0.00 | 0.00 | 0.00 | 77 | 1011.9 |
| 20260506090513 | 35 | 0 | 0.0 | 2.0 | 0.00 | 0.00 | 0.00 | 77 | 1011.8 |
| 20260506090043 | 35 | 280 | 1.0 | 2.0 | 0.00 | 0.00 | 0.00 | 76 | 1011.8 |
| 20260506085517 | 35 | 280 | 1.0 | 3.0 | 0.00 | 0.00 | 0.00 | 76 | 1011.7 |
| 20260506085014 | 35 | 282 | 1.0 | 3.0 | 0.00 | 0.00 | 0.00 | 76 | 1011.6 |
| 20260506084530 | 35 | 282 | 2.0 | 3.0 | 0.00 | 0.00 | 0.00 | 77 | 1011.6 |
| 20260506084015 | 35 | 277 | 2.0 | 3.0 | 0.00 | 0.00 | 0.00 | 78 | 1011.7 |
| 20260506083516 | 35 | 276 | 2.0 | 3.0 | 0.00 | 0.00 | 0.00 | 78 | 1011.5 |
| 20260506083030 | 35 | 279 | 2.0 | 3.0 | 0.00 | 0.00 | 0.00 | 79 | 1011.5 |
| 20260506082534 | 35 | 283 | 2.0 | 3.0 | 0.00 | 0.00 | 0.00 | 78 | 1011.4 |
| 20260506082015 | 35 | 278 | 1.0 | 2.0 | 0.00 | 0.00 | 0.00 | 77 | 1011.5 |
| 20260506081536 | 35 | 276 | 1.0 | 2.0 | 0.00 | 0.00 | 0.00 | 75 | 1011.5 |
| 20260506081015 | 36 | 276 | 0.0 | 2.0 | 0.00 | 0.00 | 0.00 | 74 | 1011.4 |
| 20260506080512 | 36 | 276 | 1.0 | 1.0 | 0.00 | 0.00 | 0.00 | 73 | 1011.3 |
| 20260506073516 | 37 | 276 | 0.0 | 1.0 | 0.00 | 0.00 | 0.00 | 73 | 1011.2 |
| 20260506073032 | 36 | 276 | 1.0 | 2.0 | 0.00 | 0.00 | 0.00 | 74 | 1011.3 |
| 20260506072516 | 36 | 276 | 1.0 | 2.0 | 0.00 | 0.00 | 0.00 | 73 | 1011.3 |
| 20260506072015 | 37 | 276 | 1.0 | 2.0 | 0.00 | 0.00 | 0.00 | 72 | 1011.3 |
| 20260506071532 | 37 | 274 | 1.0 | 2.0 | 0.00 | 0.00 | 0.00 | 72 | 1011.2 |
| 20260506071015 | 37 | 273 | 1.0 | 2.0 | 0.00 | 0.00 | 0.00 | 71 | 1011.3 |
| 20260506070515 | 37 | 288 | 1.0 | 2.0 | 0.00 | 0.00 | 0.00 | 70 | 1011.4 |
| 20260506062516 | 38 | 298 | 1.0 | 1.0 | 0.00 | 0.00 | 0.00 | 65 | 1011.4 |
| 20260506062013 | 38 | 298 | 1.0 | 1.0 | 0.00 | 0.00 | 0.00 | 62 | 1011.4 |
| 20260506061546 | 38 | 298 | 0.0 | 1.0 | 0.00 | 0.00 | 0.00 | 63 | 1011.3 |
| 20260506061016 | 38 | 298 | 0.0 | 1.0 | 0.00 | 0.00 | 0.00 | 62 | 1011.3 |
| 20260506060519 | 39 | 298 | 1.0 | 1.0 | 0.00 | 0.00 | 0.00 | 62 | 1011.3 |
| 20260506051015 | 41 | 310 | 0.0 | 2.0 | 0.00 | 0.00 | 0.00 | 55 | 1011.7 |
| 20260506050524 | 41 | 310 | 0.0 | 2.0 | 0.00 | 0.00 | 0.00 | 52 | 1011.7 |
| 20260506045015 | 43 | 0 | 0.0 | 3.0 | 0.00 | 0.00 | 0.00 | 50 | 1011.6 |
| 20260506044544 | 43 | 0 | 0.0 | 3.0 | 0.00 | 0.00 | 0.00 | 50 | 1011.6 |
| 20260506044015 | 43 | 310 | 1.0 | 3.0 | 0.00 | 0.00 | 0.00 | 49 | 1011.6 |
| 20260506043516 | 43 | 337 | 1.0 | 3.0 | 0.00 | 0.00 | 0.00 | 49 | 1011.5 |
| 20260506043040 | 43 | 299 | 1.0 | 2.0 | 0.00 | 0.00 | 0.00 | 49 | 1011.4 |
| 20260506042516 | 43 | 322 | 1.0 | 2.0 | 0.00 | 0.00 | 0.00 | 49 | 1011.4 |
| 20260506042018 | 43 | 322 | 1.0 | 2.0 | 0.00 | 0.00 | 0.00 | 49 | 1011.2 |
| 20260506041536 | 43 | 321 | 0.0 | 2.0 | 0.00 | 0.00 | 0.00 | 49 | 1011.2 |
| 20260506041015 | 43 | 322 | 1.0 | 2.0 | 0.00 | 0.00 | 0.00 | 49 | 1011.3 |
| 20260506040515 | 43 | 321 | 0.0 | 2.0 | 0.00 | 0.00 | 0.00 | 48 | 1011.2 |
| 20260506040034 | 43 | 312 | 1.0 | 2.0 | 0.00 | 0.00 | 0.00 | 48 | 1011.2 |
| 20260506035518 | 43 | 333 | 0.0 | 2.0 | 0.00 | 0.00 | 0.00 | 48 | 1011.2 |
| 20260506035017 | 44 | 333 | 1.0 | 2.0 | 0.00 | 0.00 | 0.00 | 48 | 1011.2 |
| 20260506034535 | 44 | 336 | 0.0 | 2.0 | 0.00 | 0.00 | 0.00 | 47 | 1011.2 |
| 20260506034016 | 44 | 336 | 1.0 | 2.0 | 0.00 | 0.00 | 0.00 | 47 | 1011.2 |
| 20260506033515 | 44 | 333 | 0.0 | 3.0 | 0.00 | 0.00 | 0.00 | 47 | 1011.3 |
| 20260506033030 | 44 | 348 | 1.0 | 3.0 | 0.00 | 0.00 | 0.00 | 48 | 1011.3 |
| 20260506032516 | 44 | 0 | 1.0 | 3.0 | 0.00 | 0.00 | 0.00 | 48 | 1011.4 |
| 20260506032016 | 44 | 352 | 0.0 | 3.0 | 0.00 | 0.00 | 0.00 | 47 | 1011.3 |
| 20260506031545 | 44 | 350 | 1.0 | 3.0 | 0.00 | 0.00 | 0.00 | 46 | 1011.2 |
| 20260506031016 | 45 | 315 | 0.0 | 4.0 | 0.00 | 0.00 | 0.00 | 46 | 1011.1 |
| 20260506030516 | 45 | 338 | 1.0 | 4.0 | 0.00 | 0.00 | 0.00 | 46 | 1011.3 |
| 20260506030035 | 45 | 311 | 0.0 | 3.0 | 0.00 | 0.00 | 0.00 | 47 | 1011.2 |
| 20260506025519 | 45 | 327 | 1.0 | 2.0 | 0.00 | 0.00 | 0.00 | 46 | 1011.2 |
| 20260506025015 | 45 | 329 | 1.0 | 4.0 | 0.00 | 0.00 | 0.00 | 46 | 1011.2 |
| 20260506024544 | 45 | 331 | 2.0 | 4.0 | 0.00 | 0.00 | 0.00 | 46 | 1011.2 |
| 20260506024015 | 45 | 340 | 1.0 | 5.0 | 0.00 | 0.00 | 0.00 | 46 | 1011.1 |
| 20260506023520 | 45 | 315 | 1.0 | 5.0 | 0.00 | 0.00 | 0.00 | 46 | 1011.0 |
| 20260506023033 | 45 | 341 | 2.0 | 5.0 | 0.00 | 0.00 | 0.00 | 46 | 1011.0 |
| 20260506022518 | 46 | 339 | 2.0 | 5.0 | 0.00 | 0.00 | 0.00 | 45 | 1011.0 |
| 20260506022015 | 46 | 333 | 1.0 | 8.0 | 0.00 | 0.00 | 0.00 | 45 | 1010.9 |
| 20260506021533 | 46 | 9 | 3.0 | 8.0 | 0.00 | 0.00 | 0.00 | 44 | 1010.9 |
| 20260506021019 | 46 | 352 | 3.0 | 8.0 | 0.00 | 0.00 | 0.00 | 44 | 1010.8 |
| 20260506020515 | 46 | 351 | 2.0 | 9.0 | 0.00 | 0.00 | 0.00 | 44 | 1010.7 |
| 20260506020035 | 47 | 35 | 4.0 | 9.0 | 0.00 | 0.00 | 0.00 | 43 | 1010.7 |
| 20260506015516 | 47 | 318 | 2.0 | 5.0 | 0.00 | 0.00 | 0.00 | 43 | 1010.4 |
| 20260506015019 | 47 | 346 | 3.0 | 8.0 | 0.00 | 0.00 | 0.00 | 41 | 1010.3 |
| 20260506014536 | 47 | 344 | 3.0 | 8.0 | 0.00 | 0.00 | 0.00 | 42 | 1010.2 |
| 20260506014019 | 48 | 352 | 3.0 | 7.0 | 0.00 | 0.00 | 0.00 | 41 | 1010.0 |
| 20260506013515 | 48 | 343 | 2.0 | 8.0 | 0.00 | 0.00 | 0.00 | 41 | 1009.9 |
| 20260506013036 | 48 | 328 | 4.0 | 12.0 | 0.00 | 0.00 | 0.00 | 41 | 1009.8 |
| 20260506012516 | 48 | 342 | 6.0 | 12.0 | 0.00 | 0.00 | 0.00 | 40 | 1009.8 |
| 20260506012018 | 48 | 28 | 3.0 | 12.0 | 0.00 | 0.00 | 0.00 | 40 | 1009.9 |
| 20260506011538 | 49 | 340 | 5.0 | 12.0 | 0.00 | 0.00 | 0.00 | 40 | 1009.9 |
| 20260506011015 | 49 | 360 | 5.0 | 11.0 | 0.00 | 0.00 | 0.00 | 40 | 1009.8 |
| 20260506010515 | 49 | 321 | 4.0 | 11.0 | 0.00 | 0.00 | 0.00 | 40 | 1009.6 |
| 20260506010033 | 50 | 342 | 5.0 | 15.0 | 0.00 | 0.00 | 0.00 | 39 | 1009.6 |
| 20260506005517 | 50 | 350 | 5.0 | 15.0 | 0.00 | 0.00 | 0.00 | 38 | 1009.5 |
| 20260506005016 | 50 | 360 | 7.0 | 15.0 | 0.00 | 0.00 | 0.00 | 37 | 1009.4 |
| 20260506004535 | 51 | 324 | 6.0 | 15.0 | 0.00 | 0.00 | 0.00 | 36 | 1009.3 |
| 20260506004016 | 51 | 325 | 8.0 | 15.0 | 0.00 | 0.00 | 0.00 | 34 | 1009.2 |
| 20260506003518 | 51 | 350 | 6.0 | 14.0 | 0.00 | 0.00 | 0.00 | 34 | 1009.1 |
| 20260506003035 | 52 | 318 | 7.0 | 12.0 | 0.00 | 0.00 | 0.00 | 33 | 1009.1 |
| 20260506002515 | 52 | 315 | 6.0 | 12.0 | 0.00 | 0.00 | 0.00 | 33 | 1009.0 |
| 20260506002015 | 52 | 326 | 8.0 | 16.0 | 0.00 | 0.00 | 0.00 | 32 | 1009.1 |
| 20260506001539 | 52 | 296 | 8.0 | 16.0 | 0.00 | 0.00 | 0.00 | 32 | 1009.0 |
| 20260506001016 | 52 | 295 | 8.0 | 15.0 | 0.00 | 0.00 | 0.00 | 32 | 1009.0 |
| 20260506000516 | 52 | 327 | 7.0 | 15.0 | 0.00 | 0.00 | 0.00 | 32 | 1009.1 |
| 20260506000039 | 52 | 266 | 10.0 | 17.0 | 0.00 | 0.00 | 0.00 | 32 | 1009.1 |
| 20260505235515 | 52 | 314 | 6.0 | 17.0 | 0.00 | 0.00 | 0.00 | 33 | 1009.1 |
| 20260505235016 | 52 | 316 | 8.0 | 15.0 | 0.00 | 0.00 | 0.00 | 33 | 1009.0 |
| 20260505234535 | 52 | 310 | 9.0 | 15.0 | 0.00 | 0.00 | 0.00 | 32 | 1009.0 |
| 20260505234018 | 52 | 295 | 7.0 | 20.0 | 0.00 | 0.00 | 0.00 | 32 | 1009.0 |
| 20260505233515 | 53 | 339 | 10.0 | 20.0 | 0.00 | 0.00 | 0.00 | 31 | 1009.0 |
| 20260505233030 | 53 | 324 | 9.0 | 19.0 | 0.00 | 0.00 | 0.00 | 31 | 1009.0 |
| 20260505232518 | 53 | 327 | 9.0 | 15.0 | 0.00 | 0.00 | 0.00 | 32 | 1008.9 |
| 20260505232020 | 53 | 309 | 8.0 | 21.0 | 0.00 | 0.00 | 0.00 | 32 | 1008.9 |
| 20260505231538 | 53 | 324 | 12.0 | 21.0 | 0.00 | 0.00 | 0.00 | 31 | 1009.0 |
| 20260505231022 | 53 | 277 | 10.0 | 21.0 | 0.00 | 0.00 | 0.00 | 31 | 1009.0 |
| 20260505230515 | 53 | 351 | 12.0 | 21.0 | 0.00 | 0.00 | 0.00 | 31 | 1009.0 |
| 20260505230036 | 53 | 317 | 9.0 | 16.0 | 0.00 | 0.00 | 0.00 | 31 | 1008.9 |
| 20260505225516 | 53 | 315 | 10.0 | 17.0 | 0.00 | 0.00 | 0.00 | 31 | 1008.9 |
| 20260505225016 | 53 | 305 | 10.0 | 17.0 | 0.00 | 0.00 | 0.00 | 31 | 1008.8 |
| 20260505224529 | 53 | 360 | 8.0 | 19.0 | 0.00 | 0.00 | 0.00 | 31 | 1008.8 |
| 20260505224015 | 54 | 335 | 10.0 | 19.0 | 0.00 | 0.00 | 0.00 | 32 | 1008.8 |
| 20260505223521 | 54 | 306 | 6.0 | 22.0 | 0.00 | 0.00 | 0.00 | 32 | 1008.8 |
| 20260505223035 | 54 | 295 | 12.0 | 23.0 | 0.00 | 0.00 | 0.00 | 30 | 1008.7 |
| 20260505222515 | 55 | 300 | 12.0 | 24.0 | 0.00 | 0.00 | 0.00 | 30 | 1008.6 |
| 20260505222012 | 55 | 332 | 10.0 | 24.0 | 0.00 | 0.00 | 0.00 | 31 | 1008.6 |
| 20260505221531 | 55 | 300 | 11.0 | 24.0 | 0.00 | 0.00 | 0.00 | 31 | 1008.7 |
| 20260505221015 | 55 | 267 | 9.0 | 21.0 | 0.00 | 0.00 | 0.00 | 30 | 1008.5 |
| 20260505220517 | 55 | 343 | 11.0 | 21.0 | 0.00 | 0.00 | 0.00 | 30 | 1008.6 |
| 20260505220030 | 55 | 307 | 11.0 | 19.0 | 0.00 | 0.00 | 0.00 | 29 | 1008.6 |
| 20260505215515 | 55 | 261 | 10.0 | 18.0 | 0.00 | 0.00 | 0.00 | 30 | 1008.4 |
| 20260505215015 | 56 | 252 | 9.0 | 22.0 | 0.00 | 0.00 | 0.00 | 32 | 1008.5 |
| 20260505214553 | 55 | 346 | 13.0 | 22.0 | 0.00 | 0.00 | 0.00 | 30 | 1008.6 |
| 20260505214016 | 55 | 351 | 13.0 | 20.0 | 0.00 | 0.00 | 0.00 | 30 | 1008.4 |
| 20260505213518 | 55 | 340 | 11.0 | 19.0 | 0.00 | 0.00 | 0.00 | 32 | 1008.5 |
| 20260505213029 | 56 | 314 | 12.0 | 25.0 | 0.00 | 0.00 | 0.00 | 29 | 1008.5 |
| 20260505212515 | 55 | 328 | 15.0 | 25.0 | 0.00 | 0.00 | 0.00 | 29 | 1008.6 |
| 20260505212016 | 56 | 290 | 11.0 | 23.0 | 0.00 | 0.00 | 0.00 | 29 | 1008.5 |
| 20260505211534 | 56 | 321 | 12.0 | 23.0 | 0.00 | 0.00 | 0.00 | 29 | 1008.5 |
| 20260505211016 | 56 | 302 | 13.0 | 20.0 | 0.00 | 0.00 | 0.00 | 31 | 1008.5 |
| 20260505210515 | 56 | 50 | 11.0 | 21.0 | 0.00 | 0.00 | 0.00 | 29 | 1008.4 |
| 20260505210033 | 56 | 312 | 12.0 | 23.0 | 0.00 | 0.00 | 0.00 | 30 | 1008.7 |
| 20260505205515 | 55 | 300 | 12.0 | 23.0 | 0.00 | 0.00 | 0.00 | 29 | 1008.5 |
| 20260505205017 | 56 | 301 | 11.0 | 22.0 | 0.00 | 0.00 | 0.00 | 32 | 1008.6 |
| 20260505204534 | 56 | 346 | 14.0 | 22.0 | 0.00 | 0.00 | 0.00 | 29 | 1008.6 |
| 20260505204015 | 55 | 321 | 13.0 | 21.0 | 0.00 | 0.00 | 0.00 | 29 | 1008.7 |
| 20260505203520 | 55 | 302 | 14.0 | 24.0 | 0.00 | 0.00 | 0.00 | 30 | 1008.7 |
| 20260505203034 | 55 | 325 | 15.0 | 24.0 | 0.00 | 0.00 | 0.00 | 30 | 1008.8 |
| 20260505202516 | 55 | 309 | 14.0 | 24.0 | 0.00 | 0.00 | 0.00 | 31 | 1008.7 |
| 20260505202015 | 55 | 299 | 11.0 | 23.0 | 0.00 | 0.00 | 0.00 | 30 | 1008.9 |
| 20260505201530 | 55 | 284 | 12.0 | 22.0 | 0.00 | 0.00 | 0.00 | 30 | 1008.7 |
| 20260505201015 | 55 | 327 | 11.0 | 24.0 | 0.00 | 0.00 | 0.00 | 32 | 1008.8 |
| 20260505200516 | 55 | 266 | 11.0 | 24.0 | 0.00 | 0.00 | 0.00 | 32 | 1008.8 |
| 20260505200041 | 56 | 316 | 11.0 | 19.0 | 0.00 | 0.00 | 0.00 | 30 | 1008.8 |
| 20260505195515 | 55 | 320 | 11.0 | 25.0 | 0.00 | 0.00 | 0.00 | 31 | 1008.7 |
| 20260505195015 | 55 | 270 | 11.0 | 25.0 | 0.00 | 0.00 | 0.00 | 34 | 1008.8 |
| 20260505194529 | 54 | 319 | 14.0 | 24.0 | 0.00 | 0.00 | 0.00 | 32 | 1008.8 |
| 20260505194017 | 54 | 309 | 12.0 | 23.0 | 0.00 | 0.00 | 0.00 | 32 | 1008.8 |
| 20260505193518 | 54 | 306 | 12.0 | 23.0 | 0.00 | 0.00 | 0.00 | 34 | 1008.7 |
| 20260505193029 | 54 | 301 | 13.0 | 23.0 | 0.00 | 0.00 | 0.00 | 33 | 1008.7 |
| 20260505192519 | 54 | 322 | 11.0 | 26.0 | 0.00 | 0.00 | 0.00 | 33 | 1008.7 |
| 20260505192019 | 54 | 304 | 12.0 | 26.0 | 0.00 | 0.00 | 0.00 | 33 | 1008.8 |
| 20260505191530 | 55 | 304 | 11.0 | 22.0 | 0.00 | 0.00 | 0.00 | 32 | 1008.6 |
| 20260505191016 | 55 | 273 | 10.0 | 19.0 | 0.00 | 0.00 | 0.00 | 32 | 1008.7 |
| 20260505190515 | 55 | 301 | 9.0 | 25.0 | 0.00 | 0.00 | 0.00 | 32 | 1008.6 |
| 20260505190030 | 55 | 290 | 14.0 | 25.0 | 0.00 | 0.00 | 0.00 | 33 | 1008.7 |
| 20260505185518 | 54 | 309 | 13.0 | 25.0 | 0.00 | 0.00 | 0.00 | 32 | 1008.6 |
| 20260505185021 | 54 | 322 | 16.0 | 24.0 | 0.00 | 0.00 | 0.00 | 34 | 1008.3 |
| 20260505184533 | 54 | 315 | 14.0 | 29.0 | 0.00 | 0.00 | 0.00 | 35 | 1008.4 |
| 20260505184013 | 54 | 284 | 15.0 | 29.0 | 0.00 | 0.00 | 0.00 | 33 | 1008.5 |
| 20260505183516 | 55 | 299 | 13.0 | 28.0 | 0.00 | 0.00 | 0.00 | 33 | 1008.3 |
| 20260505183046 | 55 | 250 | 12.0 | 23.0 | 0.00 | 0.00 | 0.00 | 35 | 1008.3 |
| 20260505182516 | 55 | 304 | 11.0 | 24.0 | 0.00 | 0.00 | 0.00 | 35 | 1008.3 |
| 20260505182016 | 54 | 318 | 16.0 | 24.0 | 0.00 | 0.00 | 0.00 | 34 | 1008.3 |
| 20260505181531 | 55 | 325 | 13.0 | 23.0 | 0.00 | 0.00 | 0.00 | 37 | 1008.2 |
| 20260505181015 | 54 | 258 | 9.0 | 20.0 | 0.00 | 0.00 | 0.00 | 35 | 1008.1 |
| 20260505180515 | 54 | 326 | 14.0 | 21.0 | 0.00 | 0.00 | 0.00 | 35 | 1008.2 |
| 20260505180030 | 55 | 315 | 10.0 | 25.0 | 0.00 | 0.00 | 0.00 | 39 | 1008.1 |
| 20260505175516 | 53 | 322 | 16.0 | 26.0 | 0.00 | 0.00 | 0.00 | 35 | 1008.1 |
| 20260505175016 | 53 | 328 | 12.0 | 26.0 | 0.00 | 0.00 | 0.00 | 36 | 1008.3 |
| 20260505174534 | 53 | 333 | 13.0 | 26.0 | 0.00 | 0.00 | 0.00 | 36 | 1008.4 |
| 20260505174016 | 53 | 313 | 16.0 | 26.0 | 0.00 | 0.00 | 0.00 | 36 | 1008.3 |
| 20260505173519 | 53 | 314 | 15.0 | 22.0 | 0.00 | 0.00 | 0.00 | 35 | 1008.2 |
| 20260505173030 | 53 | 249 | 10.0 | 24.0 | 0.00 | 0.00 | 0.00 | 38 | 1008.2 |
| 20260505172515 | 53 | 253 | 12.0 | 24.0 | 0.00 | 0.00 | 0.00 | 39 | 1008.2 |
| 20260505172015 | 52 | 269 | 11.0 | 22.0 | 0.00 | 0.00 | 0.00 | 39 | 1008.2 |
| 20260505171532 | 53 | 245 | 10.0 | 22.0 | 0.00 | 0.00 | 0.00 | 38 | 1008.2 |
| 20260505171016 | 53 | 252 | 12.0 | 22.0 | 0.00 | 0.00 | 0.00 | 39 | 1008.1 |
| 20260505170515 | 52 | 252 | 9.0 | 22.0 | 0.00 | 0.00 | 0.00 | 40 | 1008.1 |
| 20260505170032 | 53 | 308 | 13.0 | 22.0 | 0.00 | 0.00 | 0.00 | 38 | 1008.2 |
| 20260505165515 | 52 | 259 | 10.0 | 19.0 | 0.00 | 0.00 | 0.00 | 39 | 1008.0 |
| 20260505165019 | 52 | 307 | 11.0 | 21.0 | 0.00 | 0.00 | 0.00 | 39 | 1008.2 |
| 20260505164529 | 52 | 248 | 11.0 | 21.0 | 0.00 | 0.00 | 0.00 | 38 | 1008.2 |
| 20260505164015 | 52 | 274 | 11.0 | 23.0 | 0.00 | 0.00 | 0.00 | 40 | 1008.2 |
| 20260505163516 | 52 | 276 | 11.0 | 23.0 | 0.00 | 0.00 | 0.00 | 39 | 1008.3 |
| 20260505163032 | 52 | 160 | 10.0 | 20.0 | 0.00 | 0.00 | 0.00 | 42 | 1008.3 |
| 20260505162516 | 51 | 312 | 12.0 | 24.0 | 0.00 | 0.00 | 0.00 | 41 | 1008.2 |
| 20260505162016 | 51 | 304 | 12.0 | 24.0 | 0.00 | 0.00 | 0.00 | 41 | 1008.2 |
| 20260505161530 | 52 | 318 | 11.0 | 21.0 | 0.00 | 0.00 | 0.00 | 40 | 1008.3 |
| 20260505161016 | 51 | 271 | 11.0 | 23.0 | 0.00 | 0.00 | 0.00 | 43 | 1008.3 |
| 20260505160517 | 51 | 281 | 12.0 | 23.0 | 0.00 | 0.00 | 0.00 | 42 | 1008.3 |
| 20260505153029 | 51 | 280 | 8.0 | 18.0 | 0.00 | 0.00 | 0.00 | 41 | 1008.3 |
| 20260505152514 | 50 | 298 | 8.0 | 18.0 | 0.00 | 0.00 | 0.00 | 44 | 1008.3 |
| 20260505152017 | 50 | 234 | 9.0 | 17.0 | 0.00 | 0.00 | 0.00 | 43 | 1008.3 |
| 20260505151531 | 50 | 279 | 10.0 | 14.0 | 0.00 | 0.00 | 0.00 | 44 | 1008.2 |
| 20260505151016 | 50 | 321 | 7.0 | 14.0 | 0.00 | 0.00 | 0.00 | 46 | 1008.2 |
| 20260505150525 | 49 | 237 | 8.0 | 13.0 | 0.00 | 0.00 | 0.00 | 45 | 1008.3 |